{"data":{"norad_id":58737,"epoch":"2026-09-20T12:52:19.366464Z","epoch_age_seconds":146557,"freshness":"FRESH","line1":"1 58737U 24005K   26263.53633526 -.00000901  00000+0 -23217-4 0  9993","line2":"2 58737  43.0036 199.3022 0001197 262.6654  97.4062 15.27578147150239","mean_motion":15.27578147,"eccentricity":0.0001197,"inclination_deg":43.0036,"raan_deg":199.3022,"arg_perigee_deg":262.6654,"mean_anomaly_deg":97.4062,"bstar":-2.3217e-5,"rev_number":15023,"period_min":94.266863062162,"perigee_km":482.23335995402,"apogee_km":483.87592923373,"semimajor_km":6861.1916445939,"source":"CELESTRAK","updated_at":"2026-09-21T09:00:33.953022Z"}}